Location: Avon School (historical)
(37.7514°N, 90.2201°W)
Time: 02:25:24
(UTC+00:00)

Vanguard 2 Rocket - Pass Details

Date: 20 November 2024
Orbit: 554 x 3296 km, 32.9° (Epoch: 03 December)

Event Time Altitude Azimuth Distance (km) Brightness Sun altitude
Exits shadow 10:33:34 14° 216° (SW) 3,397 9.5 -26.2°
Maximum altitude 10:42:01 47° 149° (SSE) 2,629 9.4 -24.5°
Drops below altitude 10° 10:57:21 10° 83° (E) 5,797 12.0 -21.5°
Sets 11:02:43 0° 79° (E) 7,069 12.7 -20.5°
